Location: Chervonnoye
(48.6000°N, 34.4000°E)
Time: 11:42:40
(UTC+00:00)

NOAA 15 - Pass Details

Date: 06 December 2021
Orbit: 797 x 812 km, 98.7° (Epoch: 24 January)

Event Time Altitude Azimuth Distance (km) Brightness Sun altitude
Rises 16:35:53 0° 170° (S) 3,314 7.7 -26.9°
Reaches altitude 10° 16:38:13 10° 172° (S) 2,386 7.0 -27.2°
Maximum altitude 16:43:29 72° 257° (WSW) 852 4.7 -28.1°
Drops below altitude 10° 16:48:47 10° 342° (NNW) 2,393 7.2 -29.0°
Sets 16:51:08 0° 344° (NNW) 3,326 8.0 -29.4°
